Weather History for Fredericksburg, TX

Change the Weather History Date:

Thursday, March 13, 2014

  Actual Average (KSAT) Record (KSAT)
Temperature  
Mean Temperature 48 °F 62 °F  
Max Temperature 66 °F 73 °F 93 °F (1971)
Min Temperature 32 °F 50 °F 23 °F (1948)
Degree Days  
Heating Degree Days 16 5  
Month to date heating degree days 84  
Since 1 July heating degree days 1385  
Cooling Degree Days 0 2  
Month to date cooling degree days 21  
Year to date cooling degree days 47  
Moisture  
Dew Point 24 °F    
Average Humidity 42    
Maximum Humidity 74    
Minimum Humidity 19    
Precipitation  
Precipitation 0.00 in 0.07 in 1.35 in (2007)
Month to date precipitation 0.98  
Year to date precipitation 4.53  
Snow  
Snow 0.00 in - - ()
Month to date snowfall  
Since 1 July snowfall  
Snow Depth -    
Sea Level Pressure  
Sea Level Pressure 30.23 in    
Wind  
Wind Speed 3 mph (South)    
Max Wind Speed 13 mph    
Max Gust Speed 16 mph    
Visibility 10 miles    
Events      
T = Trace of Precipitation, MM = Missing Value Source: NWS Daily Summary

Daily Weather History Graph

Daily Weather History Graph

Search for Another Location

Airport:

Trip Planner

Search our weather history database for the weather conditions in past years. The results will help you decide how hot, cold, wet, or windy it might be!

Date:

Astronomy

Mar. 13, 2014 Rise Set
Actual Time 7:47 AM CDT 7:42 PM CDT
Civil Twilight 7:23 AM CDT 8:06 PM CDT
Nautical Twilight 6:56 AM CDT 8:34 PM CDT
Astronomical Twilight 6:28 AM CDT 9:02 PM CDT
Moon 5:18 PM CDT (3/13) 5:46 AM CDT (3/13)
Length of Visible Light 12h 42m
Length of Day
11h 54m
Waxing Gibbous, 91% of the Moon is Illuminated
Mar 13
Waxing Gibbous
Mar 16
Full
Mar 23
Last Quarter
Mar 30
New
Apr 7
First Quarter

Hourly Weather History & Observations

Time (CDT) Temp. Windchill Dew Point Humidity Pressure Visibility Wind Dir Wind Speed Gust Speed Precip Events Conditions
12:15 AM 42.4 °F 40.7 °F 23.4 °F 47% 30.29 in 10.0 mi NNE 3.5 mph - N/A   Clear
12:35 AM 41.9 °F - 25.7 °F 53% 30.29 in 10.0 mi Calm Calm - N/A   Clear
12:55 AM 41.0 °F - 23.9 °F 51% 30.29 in 10.0 mi Calm Calm - N/A   Clear
1:15 AM 40.6 °F - 27.0 °F 58% 30.30 in 10.0 mi Calm Calm - N/A   Clear
1:35 AM 39.4 °F - 28.0 °F 64% 30.30 in 10.0 mi Calm Calm - N/A   Clear
1:55 AM 39.4 °F - 26.2 °F 59% 30.30 in 10.0 mi Calm Calm - N/A   Clear
2:15 AM 35.1 °F - 25.7 °F 69% 30.30 in 10.0 mi Calm Calm - N/A   Clear
2:35 AM 39.9 °F 36.7 °F 23.9 °F 53% 30.29 in 10.0 mi NNW 4.6 mph - N/A   Clear
2:55 AM 38.5 °F 36.1 °F 25.5 °F 60% 30.29 in 10.0 mi West 3.5 mph - N/A   Clear
3:15 AM 35.8 °F 31.9 °F 24.4 °F 63% 30.28 in 10.0 mi NNW 4.6 mph - N/A   Clear
3:35 AM 36.0 °F - 26.8 °F 69% 30.28 in 10.0 mi Calm Calm - N/A   Clear
3:55 AM 36.7 °F 34.1 °F 25.9 °F 65% 30.28 in 10.0 mi West 3.5 mph - N/A   Clear
4:15 AM 36.1 °F - 26.4 °F 68% 30.28 in 10.0 mi Calm Calm - N/A   Clear
4:35 AM 36.9 °F - 26.4 °F 66% 30.28 in 10.0 mi Calm Calm - N/A   Clear
4:55 AM 36.5 °F - 25.9 °F 65% 30.29 in 10.0 mi Calm Calm - N/A   Clear
5:15 AM 34.7 °F - 26.2 °F 71% 30.29 in 10.0 mi Calm Calm - N/A   Clear
5:35 AM 35.4 °F - 25.7 °F 68% 30.29 in 10.0 mi Calm Calm - N/A   Clear
5:55 AM 34.3 °F 31.4 °F 25.5 °F 70% 30.29 in 10.0 mi NW 3.5 mph - N/A   Clear
6:15 AM 33.4 °F - 24.4 °F 70% 30.29 in 10.0 mi Calm Calm - N/A   Clear
6:35 AM 33.3 °F 30.2 °F 24.3 °F 70% 30.30 in 10.0 mi WSW 3.5 mph - N/A   Clear
6:55 AM 33.8 °F 30.8 °F 25.2 °F 71% 30.31 in 10.0 mi West 3.5 mph - N/A   Clear
7:15 AM 32.9 °F - 25.2 °F 73% 30.31 in 10.0 mi Calm Calm - N/A   Clear
7:35 AM 32.2 °F - 24.8 °F 74% 30.31 in 10.0 mi Calm Calm - N/A   Clear
7:55 AM 32.0 °F - 24.3 °F 73% 30.31 in 10.0 mi Calm Calm - N/A   Clear
8:15 AM 32.0 °F - 23.7 °F 71% 30.32 in 10.0 mi Calm Calm - N/A   Clear
8:35 AM 33.6 °F - 25.2 °F 71% 30.32 in 10.0 mi Calm Calm - N/A   Clear
8:55 AM 35.2 °F - 26.1 °F 69% 30.33 in 10.0 mi Calm Calm - N/A   Clear
9:15 AM 38.1 °F - 26.4 °F 63% 30.33 in 10.0 mi Calm Calm - N/A   Clear
9:35 AM 41.4 °F - 27.9 °F 59% 30.33 in 10.0 mi Calm Calm - N/A   Clear
9:55 AM 45.1 °F - 27.5 °F 50% 30.33 in 10.0 mi Calm Calm - N/A   Clear
10:15 AM 49.1 °F - 23.9 °F 37% 30.33 in 10.0 mi SE 3.5 mph - N/A   Clear
10:35 AM 52.3 °F - 22.5 °F 31% 30.33 in 10.0 mi SSE 3.5 mph - N/A   Clear
10:55 AM 53.6 °F - 23.0 °F 30% 30.33 in 10.0 mi SSE 4.6 mph - N/A   Clear
11:15 AM 55.4 °F - 23.4 °F 29% 30.32 in 10.0 mi South 3.5 mph - N/A   Clear
11:35 AM 55.8 °F - 21.0 °F 26% 30.32 in 10.0 mi South 6.9 mph - N/A   Clear
11:55 AM 56.1 °F - 21.9 °F 27% 30.31 in 10.0 mi SSW 5.8 mph 9.2 mph N/A   Clear
12:15 PM 57.4 °F - 21.2 °F 25% 30.31 in 10.0 mi South 4.6 mph - N/A   Clear
12:35 PM 58.5 °F - 21.4 °F 24% 30.30 in 10.0 mi SSE 6.9 mph - N/A   Clear
12:55 PM 58.6 °F - 21.4 °F 24% 30.29 in 10.0 mi ESE 4.6 mph - N/A   Clear
1:15 PM 59.4 °F - 20.8 °F 23% 30.28 in 10.0 mi South 6.9 mph - N/A   Clear
1:35 PM 59.5 °F - 19.9 °F 22% 30.27 in 10.0 mi South 8.1 mph - N/A   Clear
1:55 PM 60.3 °F - 19.8 °F 21% 30.25 in 10.0 mi SSW 6.9 mph - N/A   Clear
2:15 PM 60.6 °F - 21.2 °F 22% 30.24 in 10.0 mi ESE 4.6 mph - N/A   Clear
2:35 PM 62.1 °F - 21.9 °F 21% 30.22 in 10.0 mi South 6.9 mph - N/A   Clear
2:55 PM 63.5 °F - 20.5 °F 19% 30.21 in 10.0 mi South 8.1 mph - N/A   Clear
3:15 PM 64.0 °F - 21.4 °F 20% 30.19 in 10.0 mi South 4.6 mph - N/A   Clear
3:35 PM 63.7 °F - 20.3 °F 19% 30.18 in 10.0 mi SSE 4.6 mph - N/A   Clear
3:55 PM 65.1 °F - 22.5 °F 20% 30.16 in 10.0 mi SSE 5.8 mph - N/A   Clear
4:15 PM 65.5 °F - 22.3 °F 19% 30.15 in 10.0 mi South 4.6 mph - N/A   Clear
4:35 PM 65.7 °F - 22.8 °F 20% 30.14 in 10.0 mi SSE 8.1 mph - N/A   Clear
4:55 PM 64.9 °F - 21.0 °F 19% 30.13 in 10.0 mi SSE 9.2 mph - N/A   Clear
5:15 PM 64.9 °F - 21.6 °F 19% 30.13 in 10.0 mi South 11.5 mph - N/A   Clear
5:35 PM 64.8 °F - 21.6 °F 19% 30.13 in 10.0 mi SSE 8.1 mph - N/A   Clear
5:55 PM 64.4 °F - 21.6 °F 19% 30.12 in 10.0 mi South 12.7 mph - N/A   Clear
6:15 PM 64.2 °F - 21.7 °F 20% 30.12 in 10.0 mi SSE 8.1 mph - N/A   Clear
6:35 PM 63.3 °F - 21.4 °F 20% 30.12 in 10.0 mi South 8.1 mph 16.1 mph N/A   Clear
6:55 PM 62.6 °F - 20.7 °F 20% 30.11 in 10.0 mi SSE 8.1 mph - N/A   Clear
7:15 PM 61.5 °F - 22.1 °F 22% 30.11 in 10.0 mi South 9.2 mph - N/A   Clear
7:35 PM 60.1 °F - 21.2 °F 22% 30.11 in 10.0 mi SSE 8.1 mph - N/A   Clear
7:55 PM 58.6 °F - 22.1 °F 24% 30.11 in 10.0 mi SSE 8.1 mph - N/A   Clear
8:15 PM 57.2 °F - 22.8 °F 27% 30.11 in 10.0 mi SSE 8.1 mph - N/A   Clear
8:35 PM 56.3 °F - 24.3 °F 29% 30.11 in 10.0 mi SSE 8.1 mph - N/A   Clear
8:55 PM 55.4 °F - 25.0 °F 31% 30.11 in 10.0 mi South 6.9 mph - N/A   Clear
9:15 PM 54.3 °F - 24.8 °F 32% 30.11 in 10.0 mi SSE 4.6 mph - N/A   Clear
9:35 PM 53.6 °F - 24.4 °F 32% 30.11 in 10.0 mi SE 3.5 mph - N/A   Clear
9:55 PM 52.7 °F - 24.4 °F 33% 30.11 in 10.0 mi Calm Calm - N/A   Clear
10:15 PM 52.0 °F - 24.4 °F 34% 30.11 in 10.0 mi SSE 3.5 mph - N/A   Clear
10:35 PM 52.3 °F - 24.8 °F 34% 30.10 in 10.0 mi SSE 5.8 mph - N/A   Clear
10:55 PM 51.8 °F - 25.3 °F 36% 30.10 in 10.0 mi SE 4.6 mph - N/A   Clear
11:15 PM 51.8 °F - 25.7 °F 36% 30.09 in 10.0 mi SE 4.6 mph - N/A   Clear
11:35 PM 50.9 °F - 26.4 °F 39% 30.09 in 10.0 mi SSE 5.8 mph - N/A   Clear
11:55 PM 50.7 °F - 26.8 °F 40% 30.09 in 10.0 mi South 8.1 mph - N/A   Clear